Wind_Speed
14 14 13 14 14 14 15 15 14 14 14 13 13 13 13 12 12 12 12 12 12 12 13 13 13 13 13 13 14 14 14 14 14 14 15 15 15 15 15 15 15 15 15
15 15 15 16 16 16 16 16 16 16 15 15 15 14 14 14 14 13 13 13 13 14 14 13 13 13 14 14 15 15 15 15 16 16 16 16 16 16 16 17 17 17 16
17 17 17 17 18 18 18 18 18 18 17 17 16 15 15 14 15 15 15 15 15 15 15 15 15 14 15 15 15 16 16 17 17 17 17 17 18 18 18 18 18 18 18
19 20 19 19 20 20 20 20 20 20 19 19 18 17 17 16 16 17 17 17 16 16 16 16 15 15 16 16 17 17 18 18 19 19 19 19 19 19 20 20 20 20 20
21 22 22 22 22 22 22 22 21 21 21 21 21 20 19 19 19 19 18 18 18 18 18 18 18 18 17 18 18 19 19 19 20 20 21 21 21 21 22 23 22 22 21
23 23 23 23 23 23 23 23 22 22 21 22 22 22 21 20 20 20 20 19 19 19 20 20 20 20 19 20 20 20 21 21 21 22 22 22 22 23 23 23 24 23 23
25 25 25 24 24 25 24 24 24 24 23 23 24 24 23 23 22 21 21 21 21 21 20 21 21 21 21 21 21 21 22 23 23 23 23 24 24 24 25 25 25 25 25
27 27 26 26 26 26 26 26 26 25 25 25 24 24 24 23 23 23 23 23 23 22 22 22 22 22 22 22 22 22 24 24 24 25 25 25 25 25 25 25 25 25 26
28 28 28 28 27 27 27 27 27 27 27 26 26 25 25 25 25 25 25 25 25 24 24 24 24 24 24 24 24 24 25 25 26 26 26 27 27 28 28 27 27 26 26
29 29 29 29 28 28 28 28 28 28 28 28 28 27 26 26 26 27 27 28 27 27 26 26 26 26 26 26 26 26 27 27 28 28 29 29 29 30 30 28 28 27 27
29 29 29 29 29 29 29 29 29 29 29 29 29 28 28 28 28 28 28 29 28 28 28 27 27 27 28 28 28 29 30 30 30 31 31 31 31 30 30 29 29 28 29
30 30 30 30 30 30 30 30 30 29 29 29 29 29 29 28 29 29 30 30 30 29 28 28 28 29 29 29 30 30 31 31 31 32 32 32 31 31 30 30 30 30 30
31 31 31 31 31 31 31 31 30 30 30 30 29 29 30 30 30 30 30 29 29 30 29 29 30 30 30 31 31 32 33 33 33 33 33 33 32 31 32 31 32 32 32
31 30 30 30 30 30 31 30 30 30 30 30 30 30 30 30 30 30 31 31 30 30 31 31 31 31 32 33 34 34 34 34 34 34 34 33 33 32 32 32 32 32 32
30 30 30 30 29 30 30 30 30 31 31 31 30 30 31 31 31 31 31 31 31 31 31 32 32 33 34 34 35 36 35 35 35 34 34 33 33 33 32 32 32 33 33
31 30 30 30 29 29 30 29 29 30 31 31 31 31 31 31 31 31 31 31 31 31 32 32 33 34 34 35 35 35 35 35 35 35 34 34 34 34 34 34 34 33 33
31 30 30 30 30 30 30 29 29 30 30 31 32 32 32 32 32 32 32 31 32 32 32 33 32 33 33 33 33 33 34 35 36 35 34 34 34 34 34 35 35 35 35
32 31 31 30 30 30 30 30 30 30 30 30 31 31 32 31 31 32 33 33 32 32 33 34 34 33 33 33 33 34 34 34 34 34 34 34 34 34 34 33 34 34 34
32 31 31 30 29 29 29 30 30 30 30 30 30 30 31 31 30 31 32 32 32 32 33 33 34 34 33 33 33 33 34 34 34 34 34 34 34 34 34 33 34 34 35
31 30 29 29 29 29 30 30 30 30 30 30 31 31 31 31 31 31 31 32 31 31 31 32 33 33 33 34 33 33 33 34 34 35 35 34 34 35 35 34 34 34 35
30 29 29 29 29 29 30 30 30 30 30 31 31 31 31 31 32 32 32 31 30 30 31 32 32 33 33 33 33 33 33 33 33 33 33 33 34 34 34 34 33 34 35
29 29 29 29 30 30 30 30 30 30 31 31 30 30 30 30 30 30 31 31 30 29 29 29 30 31 32 33 33 33 33 33 33 32 32 33 33 33 33 33 34 35 35
29 29 28 29 30 30 30 30 31 31 30 31 30 30 30 30 30 30 30 28 29 28 28 29 29 30 31 32 32 32 33 33 33 33 33 33 33 33 34 34 35 35 35
29 29 28 28 29 29 29 29 29 29 29 29 29 29 29 29 29 29 29 28 28 28 28 29 29 29 30 31 31 32 32 32 32 33 33 33 33 33 34 34 34 34 35
28 28 27 27 27 28 28 27 27 28 28 28 28 27 27 28 28 28 29 29 29 29 28 29 29 29 30 30 30 30 31 31 31 32 32 32 33 33 34 33 33 34 34
26 26 26 26 27 27 27 27 27 27 27 27 27 27 27 27 27 28 28 28 28 28 28 29 29 29 29 29 29 29 30 30 31 31 31 31 32 32 33 33 33 34 34
Wind_Direction
321 320 319 320 320 319 320 319 318 316 314 311 307 303 299 298 298 298 294 290 288 289 290 285 278 272 272 271 271 271 273 278 280 280 283 285 285 284 284 283 285 283 282
315 314 313 314 313 314 313 311 311 311 310 307 304 304 301 295 293 292 289 287 287 287 283 284 283 277 276 275 271 270 272 275 278 279 282 284 284 283 284 283 282 282 282
310 310 308 308 309 310 308 307 304 303 302 300 297 297 298 294 289 288 286 286 285 285 282 283 282 279 276 275 273 272 272 275 278 280 282 284 284 284 283 283 282 281 281
307 306 305 303 305 306 306 304 302 301 300 299 296 292 290 290 288 286 286 284 284 284 284 283 282 279 278 276 276 274 273 276 279 281 283 284 283 283 283 282 281 280 281
304 302 302 301 301 301 301 301 301 299 300 297 295 293 290 287 286 285 285 284 283 284 284 282 282 281 281 279 278 276 275 277 280 282 283 284 284 283 282 282 280 278 279
301 300 299 298 298 297 296 297 298 298 297 295 293 293 290 288 286 282 280 279 281 282 282 280 279 279 279 280 280 279 277 278 280 282 284 285 284 283 281 280 278 277 277
299 298 296 295 294 295 295 294 294 295 295 294 293 290 287 284 283 282 281 279 279 280 282 281 280 278 277 278 278 279 279 279 280 282 284 285 284 283 282 279 277 277 278
297 297 295 292 291 291 290 289 290 291 292 291 291 289 287 283 280 280 280 278 279 280 281 282 281 278 277 276 278 279 280 281 281 283 284 286 285 283 282 281 278 278 279
296 295 293 292 292 291 289 288 288 288 288 289 288 287 285 283 280 279 279 279 278 279 279 280 280 277 276 276 277 279 281 281 282 283 285 286 286 287 285 281 279 279 279
295 295 291 290 290 290 289 290 289 287 286 286 285 283 282 282 281 280 278 277 277 278 277 278 278 276 275 275 276 278 279 280 282 282 284 286 286 286 285 282 280 279 277
295 294 291 289 290 290 289 289 289 288 287 285 282 280 279 280 281 281 279 277 278 277 276 276 276 276 275 277 278 278 279 280 282 282 283 285 286 284 282 280 278 278 278
295 294 291 291 289 288 289 289 288 288 287 285 282 280 279 279 279 280 280 280 277 276 276 275 275 275 274 276 278 279 279 281 282 281 282 284 283 281 279 277 277 277 278
295 294 292 291 289 288 288 287 286 286 285 285 283 281 279 278 278 280 280 279 277 276 276 275 275 275 276 276 277 279 280 281 282 282 282 283 281 280 279 278 278 277 278
295 294 293 292 290 289 289 288 285 284 283 283 283 282 280 279 278 278 281 279 277 276 276 276 276 276 277 278 278 279 281 282 282 280 280 280 279 279 280 279 277 276 277
295 294 294 294 292 290 289 289 287 286 285 283 282 281 280 279 279 278 280 280 279 276 275 276 277 277 279 279 280 281 282 283 282 280 279 278 279 279 279 279 279 278 278
295 295 295 295 293 291 290 290 289 287 286 285 283 282 281 281 281 280 280 279 278 276 275 274 275 276 277 278 279 280 281 281 280 279 279 278 278 278 278 277 278 278 279
294 295 295 294 294 292 290 290 289 288 286 286 285 284 282 280 281 282 282 281 277 276 275 275 276 277 277 277 279 281 281 281 280 279 279 278 278 278 278 277 276 276 278
294 294 294 294 293 292 290 290 290 290 289 288 287 285 285 282 281 281 280 279 276 275 275 276 276 277 279 280 281 281 281 281 281 280 279 278 278 278 277 277 276 275 276
294 293 293 293 293 293 292 293 293 291 290 289 288 285 285 285 283 283 282 280 278 277 277 277 278 278 279 280 281 281 280 280 280 280 279 279 279 279 278 277 276 276 276
293 292 292 292 294 294 294 294 294 294 292 290 289 288 286 285 284 283 282 282 281 279 279 279 279 278 278 279 281 281 279 279 280 280 279 279 279 279 279 278 276 275 276
292 292 292 293 294 295 295 295 294 294 293 292 291 290 289 287 285 285 285 285 282 280 280 280 280 281 282 282 282 282 280 279 279 280 280 280 279 280 280 278 275 275 275
292 292 293 294 295 296 296 295 294 293 293 292 293 292 291 290 289 288 288 288 288 287 285 284 283 282 283 281 280 280 280 280 280 280 280 280 279 279 279 277 276 276 276
291 292 293 294 296 296 295 295 294 293 293 292 293 293 292 292 290 290 290 290 291 289 288 288 287 285 284 282 282 280 280 280 279 279 280 280 279 279 279 278 278 277 277
291 292 294 295 296 296 295 295 294 293 294 294 295 296 295 295 293 292 292 293 293 294 293 292 290 288 285 283 282 281 281 281 280 279 280 280 279 279 278 278 278 277 276
294 294 296 298 299 299 299 298 298 298 298 297 297 297 297 296 296 295 294 293 293 293 293 292 291 289 287 286 284 284 283 282 281 280 280 279 280 281 279 278 277 277 277
294 295 296 297 298 298 298 298 299 299 298 298 298 298 298 298 298 297 296 294 294 294 294 293 291 290 290 288 287 287 286 285 284 282 281 281 281 282 282 280 279 278 277
Height
5886 5884 5882 5880 5879 5877 5875 5873 5871 5869 5867 5865 5864 5863 5861 5860 5859 5858 5857 5857 5856 5855 5855 5854 5853 5853 5852 5852 5852 5852 5851 5851 5851 5851 5850 5849 5848 5847 5846 5846 5845 5844 5843
5883 5881 5879 5877 5875 5873 5872 5870 5868 5866 5864 5863 5861 5859 5858 5857 5856 5855 5854 5854 5853 5852 5851 5850 5850 5849 5849 5848 5848 5848 5847 5847 5847 5846 5846 5845 5844 5843 5842 5841 5841 5840 5839
5879 5877 5875 5874 5872 5870 5868 5866 5864 5862 5861 5859 5857 5856 5855 5853 5852 5851 5851 5850 5849 5848 5848 5847 5846 5845 5845 5844 5844 5844 5843 5843 5842 5842 5841 5840 5839 5838 5837 5836 5835 5834 5834
5875 5873 5871 5869 5867 5865 5863 5862 5860 5858 5856 5854 5853 5851 5850 5849 5848 5847 5846 5845 5845 5844 5843 5843 5842 5841 5840 5840 5839 5839 5839 5838 5838 5837 5836 5835 5834 5833 5832 5831 5830 5828 5828
5870 5868 5866 5864 5862 5860 5858 5856 5855 5853 5851 5850 5848 5846 5845 5844 5843 5842 5841 5841 5840 5839 5838 5838 5837 5836 5836 5835 5834 5834 5833 5833 5832 5832 5831 5830 5829 5828 5826 5825 5824 5823 5822
5865 5863 5860 5858 5856 5854 5853 5851 5849 5847 5846 5844 5842 5841 5839 5838 5838 5837 5836 5835 5834 5833 5833 5832 5831 5831 5830 5830 5829 5828 5827 5827 5827 5826 5825 5824 5823 5821 5820 5819 5818 5817 5816
5859 5857 5854 5852 5850 5848 5846 5845 5843 5841 5840 5838 5836 5835 5834 5833 5832 5831 5830 5829 5828 5828 5827 5826 5826 5825 5824 5824 5823 5822 5821 5821 5820 5819 5818 5817 5816 5814 5813 5812 5811 5810 5809
5852 5850 5847 5845 5844 5842 5840 5838 5837 5835 5833 5832 5830 5829 5827 5826 5825 5824 5824 5823 5822 5822 5821 5820 5819 5819 5818 5817 5816 5816 5815 5814 5813 5812 5811 5810 5808 5807 5805 5804 5803 5803 5802
5844 5842 5840 5838 5836 5834 5833 5831 5829 5827 5826 5824 5823 5821 5820 5819 5818 5817 5816 5815 5815 5814 5814 5813 5812 5812 5811 5810 5809 5809 5808 5807 5806 5805 5803 5802 5801 5799 5798 5797 5796 5795 5794
5836 5834 5831 5829 5828 5827 5825 5823 5821 5819 5818 5816 5815 5813 5812 5811 5810 5809 5808 5808 5807 5807 5806 5805 5804 5804 5803 5802 5801 5801 5800 5799 5798 5797 5796 5794 5793 5791 5790 5789 5788 5787 5786
5827 5825 5823 5821 5819 5817 5816 5814 5812 5811 5809 5808 5806 5805 5804 5803 5802 5801 5800 5799 5799 5798 5798 5797 5796 5795 5795 5794 5793 5793 5792 5791 5789 5789 5787 5786 5784 5783 5781 5780 5779 5778 5778
5818 5816 5814 5812 5810 5808 5807 5805 5803 5802 5800 5799 5797 5796 5795 5794 5794 5792 5791 5790 5789 5789 5789 5788 5787 5787 5786 5785 5784 5784 5783 5781 5780 5779 5778 5777 5776 5774 5773 5772 5771 5770 5769
5809 5806 5804 5802 5800 5798 5797 5795 5794 5792 5791 5790 5788 5787 5786 5785 5784 5783 5782 5781 5780 5780 5780 5779 5778 5777 5777 5776 5775 5774 5773 5772 5771 5770 5769 5767 5766 5765 5763 5762 5762 5760 5759
5800 5797 5795 5793 5791 5789 5787 5785 5784 5782 5781 5780 5779 5778 5777 5776 5774 5773 5772 5771 5770 5770 5770 5769 5769 5768 5767 5766 5765 5764 5763 5762 5760 5759 5758 5757 5756 5755 5754 5753 5752 5750 5750
5791 5789 5786 5784 5782 5780 5778 5776 5774 5773 5771 5770 5769 5768 5767 5766 5765 5763 5762 5761 5760 5760 5760 5760 5759 5758 5757 5756 5755 5753 5752 5751 5750 5749 5747 5746 5746 5745 5744 5743 5742 5741 5740
5783 5781 5778 5776 5773 5772 5770 5768 5765 5764 5762 5761 5759 5758 5757 5756 5755 5754 5752 5751 5750 5750 5749 5749 5748 5747 5747 5746 5744 5743 5741 5740 5739 5738 5737 5736 5735 5734 5733 5732 5731 5730 5729
5774 5772 5769 5767 5765 5763 5761 5759 5757 5756 5753 5752 5750 5748 5747 5746 5745 5744 5742 5741 5741 5740 5739 5738 5738 5737 5736 5735 5733 5732 5730 5729 5728 5727 5726 5725 5724 5724 5723 5722 5720 5720 5719
5765 5763 5761 5758 5756 5754 5752 5750 5748 5747 5745 5743 5741 5738 5737 5736 5735 5734 5732 5731 5730 5730 5729 5728 5727 5726 5725 5724 5722 5721 5720 5718 5717 5716 5715 5714 5713 5713 5712 5711 5710 5709 5708
5756 5754 5752 5750 5748 5745 5743 5741 5739 5737 5736 5734 5732 5730 5728 5727 5725 5724 5722 5720 5719 5719 5718 5717 5716 5715 5714 5713 5711 5710 5709 5708 5707 5705 5704 5703 5702 5702 5700 5700 5699 5698 5697
5747 5745 5743 5741 5739 5737 5735 5733 5730 5728 5726 5724 5723 5721 5719 5717 5716 5714 5712 5711 5709 5708 5707 5706 5705 5704 5702 5701 5700 5699 5698 5697 5696 5695 5693 5692 5691 5690 5690 5689 5688 5687 5686
5738 5736 5734 5732 5731 5729 5726 5724 5722 5719 5717 5715 5713 5711 5709 5708 5706 5705 5703 5700 5699 5698 5697 5696 5694 5692 5691 5691 5689 5689 5687 5686 5685 5684 5683 5682 5680 5679 5678 5677 5677 5676 5675
5729 5727 5726 5724 5722 5720 5718 5715 5713 5711 5708 5706 5704 5702 5700 5698 5697 5695 5693 5691 5689 5687 5686 5685 5683 5682 5681 5680 5678 5677 5676 5675 5674 5673 5672 5671 5670 5668 5667 5666 5665 5665 5663
5721 5719 5718 5716 5714 5712 5709 5707 5704 5702 5700 5697 5695 5693 5691 5689 5688 5686 5684 5682 5680 5678 5677 5675 5673 5672 5670 5668 5667 5666 5665 5664 5663 5662 5661 5660 5659 5658 5656 5655 5654 5653 5652
5713 5711 5709 5707 5705 5703 5701 5698 5696 5693 5691 5689 5687 5685 5683 5681 5679 5677 5675 5673 5671 5669 5667 5665 5663 5661 5659 5658 5656 5655 5653 5652 5652 5651 5650 5649 5648 5646 5645 5643 5642 5641 5640
5705 5703 5701 5699 5697 5695 5692 5690 5688 5686 5683 5681 5679 5677 5675 5672 5670 5668 5666 5663 5661 5659 5657 5655 5653 5651 5649 5647 5645 5644 5642 5641 5640 5639 5638 5637 5636 5635 5634 5632 5631 5629 5628
5697 5695 5694 5692 5690 5687 5685 5683 5681 5678 5676 5674 5671 5669 5667 5664 5662 5660 5657 5654 5652 5649 5647 5645 5643 5640 5638 5636 5635 5633 5632 5630 5629 5628 5627 5626 5625 5624 5622 5621 5619 5618 5617